TimeCDT,TemperatureF,Dew PointF,Humidity,Sea Level PressureIn,VisibilityMPH,Wind Direction,Wind SpeedMPH,Gust SpeedMPH,PrecipitationIn,Events,Conditions,WindDirDegrees,DateUTC
12:13 AM,39.2,37.4,93,30.03,10.0,Calm,Calm,-,N/A,,Clear,0,2013-05-07 05:13:00
12:34 AM,39.2,37.4,93,30.03,10.0,Calm,Calm,-,N/A,,Clear,0,2013-05-07 05:34:00
12:53 AM,39.2,37.4,93,30.04,10.0,Calm,Calm,-,N/A,,Clear,0,2013-05-07 05:53:00
1:13 AM,37.4,35.6,93,30.04,10.0,Calm,Calm,-,N/A,,Clear,0,2013-05-07 06:13:00
1:34 AM,39.2,37.4,93,30.04,10.0,Calm,Calm,-,N/A,,Clear,0,2013-05-07 06:34:00
1:53 AM,39.2,37.4,93,30.04,10.0,Calm,Calm,-,N/A,,Clear,0,2013-05-07 06:53:00
2:13 AM,37.4,35.6,93,30.04,10.0,Calm,Calm,-,N/A,,Clear,0,2013-05-07 07:13:00
2:34 AM,35.6,33.8,93,30.04,10.0,Calm,Calm,-,N/A,,Clear,0,2013-05-07 07:34:00
2:53 AM,37.4,35.6,93,30.04,10.0,Calm,Calm,-,N/A,,Clear,0,2013-05-07 07:53:00
3:13 AM,37.4,37.4,100,30.04,10.0,Calm,Calm,-,N/A,,Clear,0,2013-05-07 08:13:00
3:34 AM,37.4,35.6,93,30.04,10.0,Calm,Calm,-,N/A,,Clear,0,2013-05-07 08:34:00
3:53 AM,35.6,33.8,93,30.04,10.0,Calm,Calm,-,N/A,,Clear,0,2013-05-07 08:53:00
4:13 AM,35.6,35.6,100,30.04,10.0,Calm,Calm,-,N/A,,Clear,0,2013-05-07 09:13:00
4:34 AM,35.6,33.8,93,30.04,10.0,Calm,Calm,-,N/A,,Clear,0,2013-05-07 09:34:00
5:13 AM,33.8,33.8,100,30.04,10.0,Calm,Calm,-,N/A,,Clear,0,2013-05-07 10:13:00
5:34 AM,35.6,33.8,93,30.04,10.0,Calm,Calm,-,N/A,,Clear,0,2013-05-07 10:34:00
5:53 AM,35.6,33.8,93,30.04,10.0,Calm,Calm,-,N/A,,Clear,0,2013-05-07 10:53:00
6:13 AM,33.8,33.8,100,30.04,10.0,Calm,Calm,-,N/A,,Clear,0,2013-05-07 11:13:00
6:34 AM,37.4,37.4,100,30.04,10.0,Calm,Calm,-,N/A,,Clear,0,2013-05-07 11:34:00
6:53 AM,39.2,39.2,100,30.04,10.0,Calm,Calm,-,N/A,,Clear,0,2013-05-07 11:53:00
7:13 AM,44.6,44.6,100,30.04,10.0,Calm,Calm,-,N/A,,Clear,0,2013-05-07 12:13:00
7:34 AM,48.2,48.2,100,30.04,10.0,Calm,Calm,-,N/A,,Clear,0,2013-05-07 12:34:00
7:53 AM,53.6,50.0,88,30.04,10.0,Calm,Calm,-,N/A,,Clear,0,2013-05-07 12:53:00
8:13 AM,57.2,48.2,72,30.04,10.0,Calm,Calm,-,N/A,,Clear,0,2013-05-07 13:13:00
8:34 AM,57.2,48.2,72,30.04,10.0,Calm,Calm,-,N/A,,Clear,0,2013-05-07 13:34:00
8:53 AM,60.8,48.2,63,30.04,10.0,Calm,Calm,-,N/A,,Clear,0,2013-05-07 13:53:00
9:14 AM,62.6,48.2,59,30.04,10.0,West,3.5,-,N/A,,Clear,260,2013-05-07 14:14:00
9:34 AM,62.6,48.2,59,30.04,10.0,West,3.5,-,N/A,,Clear,270,2013-05-07 14:34:00
9:53 AM,62.6,48.2,59,30.03,10.0,West,3.5,-,N/A,,Clear,270,2013-05-07 14:53:00
10:14 AM,62.6,50.0,63,30.03,10.0,West,4.6,-,N/A,,Clear,280,2013-05-07 15:14:00
10:34 AM,62.6,50.0,63,30.03,10.0,WNW,5.8,-,N/A,,Clear,290,2013-05-07 15:34:00
10:53 AM,62.6,50.0,63,30.02,10.0,West,5.8,-,N/A,,Clear,280,2013-05-07 15:53:00
11:14 AM,62.6,48.2,59,30.02,10.0,West,4.6,-,N/A,,Clear,280,2013-05-07 16:14:00
11:34 AM,60.8,50.0,68,30.02,10.0,WNW,5.8,-,N/A,,Scattered Clouds,290,2013-05-07 16:34:00
11:53 AM,60.8,50.0,68,30.01,10.0,WNW,5.8,-,N/A,,Scattered Clouds,290,2013-05-07 16:53:00
12:14 PM,62.6,51.8,68,30.01,10.0,WNW,4.6,-,N/A,,Mostly Cloudy,290,2013-05-07 17:14:00
12:33 PM,66.2,51.8,60,30.01,10.0,West,8.1,-,N/A,,Scattered Clouds,280,2013-05-07 17:33:00
12:53 PM,64.4,51.8,64,30.00,10.0,West,6.9,-,N/A,,Scattered Clouds,280,2013-05-07 17:53:00
1:14 PM,66.2,51.8,60,29.99,10.0,WNW,5.8,-,N/A,,Scattered Clouds,290,2013-05-07 18:14:00
1:33 PM,64.4,50.0,59,29.99,10.0,WNW,6.9,-,N/A,,Scattered Clouds,290,2013-05-07 18:33:00
1:53 PM,68.0,51.8,56,29.98,10.0,NW,6.9,-,N/A,,Scattered Clouds,310,2013-05-07 18:53:00
2:14 PM,64.4,50.0,59,29.97,10.0,WNW,4.6,-,N/A,,Scattered Clouds,290,2013-05-07 19:14:00
2:34 PM,69.8,51.8,53,29.97,10.0,WNW,5.8,-,N/A,,Scattered Clouds,300,2013-05-07 19:34:00
2:53 PM,68.0,50.0,52,29.96,10.0,WNW,5.8,-,N/A,,Clear,300,2013-05-07 19:53:00
3:14 PM,69.8,50.0,49,29.95,10.0,NW,4.6,-,N/A,,Scattered Clouds,310,2013-05-07 20:14:00
3:33 PM,66.2,48.2,52,29.95,10.0,WNW,4.6,-,N/A,,Scattered Clouds,290,2013-05-07 20:33:00
3:53 PM,71.6,50.0,46,29.94,10.0,NW,4.6,-,N/A,,Scattered Clouds,310,2013-05-07 20:53:00
4:14 PM,69.8,48.2,46,29.94,10.0,WNW,5.8,-,N/A,,Clear,290,2013-05-07 21:14:00
4:33 PM,69.8,48.2,46,29.93,10.0,WNW,3.5,-,N/A,,Clear,300,2013-05-07 21:33:00
4:53 PM,71.6,46.4,41,29.93,7.0,West,5.8,-,N/A,,Scattered Clouds,270,2013-05-07 21:53:00
5:14 PM,69.8,46.4,43,29.92,10.0,West,4.6,-,N/A,,Mostly Cloudy,280,2013-05-07 22:14:00
5:33 PM,69.8,46.4,43,29.92,10.0,West,4.6,-,N/A,,Scattered Clouds,270,2013-05-07 22:33:00
5:53 PM,69.8,46.4,43,29.92,10.0,West,4.6,-,N/A,,Clear,270,2013-05-07 22:53:00
6:14 PM,69.8,44.6,40,29.92,10.0,West,5.8,-,N/A,,Clear,260,2013-05-07 23:14:00
6:33 PM,69.8,44.6,40,29.92,10.0,West,4.6,-,N/A,,Scattered Clouds,270,2013-05-07 23:33:00
6:53 PM,66.2,44.6,46,29.92,10.0,West,4.6,-,N/A,,Scattered Clouds,270,2013-05-07 23:53:00
7:13 PM,66.2,44.6,46,29.92,10.0,West,4.6,-,N/A,,Clear,260,2013-05-08 00:13:00
7:33 PM,64.4,44.6,49,29.92,10.0,WSW,4.6,-,N/A,,Clear,250,2013-05-08 00:33:00
7:54 PM,64.4,44.6,49,29.92,10.0,WSW,6.9,-,N/A,,Clear,240,2013-05-08 00:54:00
8:13 PM,62.6,44.6,52,29.93,10.0,SW,8.1,-,N/A,,Clear,230,2013-05-08 01:13:00
8:33 PM,60.8,42.8,52,29.93,10.0,SW,4.6,-,N/A,,Clear,230,2013-05-08 01:33:00
8:54 PM,59.0,42.8,55,29.93,10.0,WSW,4.6,-,N/A,,Clear,240,2013-05-08 01:54:00
9:13 PM,57.2,42.8,59,29.94,10.0,WSW,3.5,-,N/A,,Clear,240,2013-05-08 02:13:00
9:33 PM,57.2,42.8,59,29.94,10.0,Calm,Calm,-,N/A,,Clear,0,2013-05-08 02:33:00
9:54 PM,53.6,42.8,67,29.94,10.0,Calm,Calm,-,N/A,,Clear,0,2013-05-08 02:54:00
10:13 PM,51.8,41.0,67,29.94,10.0,Calm,Calm,-,N/A,,Clear,0,2013-05-08 03:13:00
10:33 PM,48.2,42.8,82,29.94,10.0,Calm,Calm,-,N/A,,Clear,0,2013-05-08 03:33:00
10:54 PM,48.2,42.8,82,29.94,10.0,Calm,Calm,-,N/A,,Clear,0,2013-05-08 03:54:00
11:13 PM,46.4,41.0,81,29.94,10.0,SE,3.5,-,N/A,,Clear,140,2013-05-08 04:13:00
11:33 PM,44.6,41.0,87,29.94,10.0,Calm,Calm,-,N/A,,Clear,0,2013-05-08 04:33:00
11:54 PM,44.6,39.2,81,29.94,10.0,Calm,Calm,-,N/A,,Clear,0,2013-05-08 04:54:00